Torna al catalogo

COSMOS 2251 DEB

AttivoLEO
NORAD 34732·DEBRIS·🇷🇺 Russia

Lanciato Jun 16, 1993 da Plesetsk Cosmodrome

Loading…

Prossimi Passaggi (prossime 24 ore)

TLE

AggiornatoSource: Space-Track

Epoca: Sep 14, 2026, 13:51 UTC

1 34732U 93036ZA  26257.57722115  .00000214  00000-0  65059-4 0  9998
2 34732  74.0443 297.6334 0039009  16.5223 136.0652 14.47520874921341

Traccia COSMOS 2251 DEB in tempo reale con AllMySat

Download on the App Store